www.pogodaiklimat.ru

Погода и климат >> Архив погоды >> Австралия >> Новый Южный Уэльс >> Тибообера


ПОГОДА в Тибообере

  • Прогноз погоды в Тибообере
  • Монитор погоды в Тибообере

АРХИВ ПОГОДЫ в Тибообере

Время (UTC), дата Ветер
(напр.,м/с)
 
Видим.   Явления Облачность Т
(С)
Тd
(С)
f
(%)
Тe
(С)
Тes
(С)
Комфортность P
(гПа)
Po
(гПа)
Тmin
(С)
Tmax
(С)
R
(мм)
R24
(мм)
S
(см)
04 17.02 В 4 н/о н/о +39.6 +4.9 12 +37 +37 очень
жарко
1006.3 986.5
05 17.02 СВ 3 н/о н/о +40.6 +1.6 9 +37 +37 очень
жарко
1005.2 985.4
06 17.02 С 3 н/о н/о +39.9 +1.1 9 +36 +36 очень
жарко
1004.2 984.5
07 17.02 СЗ 2 н/о н/о +39.9 +1.1 9 +36 +36 очень
жарко
1003.8 984.1
08 17.02 З 6 н/о н/о +38.9 +1.8 10 +35 +35 очень
жарко
1003.9 984.2
09 17.02 ЮВ 2 н/о н/о +38.7 +1.6 10 +35 +35 очень
жарко
1004.2 984.5
10 17.02 Ю 5 н/о н/о +36.7 +6.8 16 +34 +34 очень
жарко
1005.2 985.4
11 17.02 ЮВ 8 н/о н/о +33.5 +10.8 25 +33 +33 жарко 1006.2 986.4
12 17.02 ЮВ 7 н/о н/о +33.4 +10.1 24 +33 +33 жарко 1006.5 986.7
13 17.02 В 5 н/о н/о +32.2 +10.3 26 +32 +32 жарко 1006.5 986.7 +41.4
14 17.02 ЮВ 4 н/о н/о +30.9 +10.3 28 +31 +31 жарко 1006.4 986.6
15 17.02 В 4 н/о н/о +29.8 +9.9 29 +30 +30 жарко 1005.8 986.0
16 17.02 ЮВ 4 н/о н/о +29.5 +9.6 29 +29 +29 жарко 1005.3 985.5
17 17.02 В 5 н/о н/о +29.3 +8.9 28 +29 +29 жарко 1004.9 985.1
18 17.02 В 3 н/о н/о +28.3 +8.6 29 +28 +28 жарко 1004.7 984.9
19 17.02 В 3 н/о н/о +27.0 +8.9 32 +27 +27 жарко 1004.7 984.9
20 17.02 В 3 н/о н/о +26.3 +8.8 33 +27 +27 жарко 1005.3 985.5
21 17.02 В 3 н/о н/о +27.0 +9.4 33 +27 +27 жарко 1005.8 986.0
22 17.02 В 5 н/о н/о +30.2 +9.7 28 +30 +30 жарко 1006.2 986.4
23 17.02 СВ 5 н/о н/о +33.0 +10.9 26 +33 +33 жарко 1006.4 986.6
00 18.02 С 4 н/о н/о +35.0 +10.1 22 +34 +34 очень
жарко
1006.4 986.6
01 18.02 С 2 н/о н/о +37.9 +7.7 16 +36 +36 очень
жарко
1005.9 986.1 +26.0
02 18.02 З 4 н/о н/о +40.2 +2.8 10 +37 +37 очень
жарко
1005.5 985.7
03 18.02 З 7 н/о н/о +40.0 -0.5 8 +36 +36 очень
жарко
1004.8 985.0
04 18.02 З 6 н/о н/о +41.5 -1.2 7 +38 +38 очень
жарко
1004.0 984.3
05 18.02 З 8 н/о н/о +41.7 +0.8 8 +38 +38 очень
жарко
1003.2 983.5
06 18.02 ЮЗ 5 н/о н/о +41.4 -1.3 7 +37 +37 очень
жарко
1002.9 983.2
07 18.02 З 4 н/о н/о +41.1 -1.5 7 +37 +37 очень
жарко
1002.9 983.2
08 18.02 ЮЗ 6 н/о н/о +40.5 -4.0 6 +36 +36 очень
жарко
1002.9 983.2
09 18.02 ЮЗ 6 н/о н/о +39.6 -7.0 5 +35 +35 очень
жарко
1003.4 983.7
10 18.02 З 4 н/о н/о +37.1 -6.4 6 +33 +33 жарко 1004.0 984.3
11 18.02 З 4 н/о н/о +34.8 -6.0 7 +31 +31 жарко 1004.6 984.8
12 18.02 СЗ 4 н/о н/о +34.2 -6.5 7 +30 +30 жарко 1004.7 984.9
13 18.02 ЮЗ 8 н/о н/о +33.6 -5.2 8 +30 +30 жарко 1005.3 985.5 +42.4
14 18.02 Ю 10 н/о н/о +31.8 +6.1 20 +30 +30 жарко 1006.0 986.2
15 18.02 Ю 8 н/о н/о +29.8 +6.5 23 +29 +29 жарко 1006.5 986.7
16 18.02 Ю 9 н/о н/о +28.3 +6.4 25 +27 +27 жарко 1006.6 986.8
17 18.02 Ю 9 н/о н/о +26.3 +5.8 27 +26 +26 жарко 1006.9 987.1
18 18.02 Ю 8 н/о н/о +25.4 +6.1 29 +25 +25 комфорт 1006.8 987.0
19 18.02 Ю 8 н/о н/о +24.6 +5.9 30 +24 +24 комфорт 1007.4 987.6
20 18.02 Ю 9 н/о н/о +23.6 +5.5 31 +24 +24 комфорт 1008.0 988.2
21 18.02 Ю 8 н/о н/о +23.1 +4.6 30 +23 +23 комфорт 1008.9 989.1
22 18.02 Ю 8 н/о н/о +23.6 +4.5 29 +23 +23 комфорт 1009.8 989.9
23 18.02 Ю 9 н/о н/о +24.6 +4.9 28 +24 +24 комфорт 1010.2 990.3
00 19.02 Ю 8 н/о н/о +25.8 +4.9 26 +25 +25 комфорт 1010.5 990.6
01 19.02 Ю 9 н/о н/о +27.3 +5.0 24 +26 +26 жарко 1010.2 990.3 +23.2
02 19.02 Ю 8 н/о н/о +28.8 +4.3 21 +27 +27 жарко 1009.7 989.8
03 19.02 Ю 8 н/о н/о +30.4 +2.6 17 +28 +28 жарко 1009.2 989.4
04 19.02 Ю 7 н/о н/о +31.9 +0.1 13 +29 +29 жарко 1008.6 988.8
05 19.02 Ю 8 н/о н/о +32.0 -2.1 11 +28 +28 жарко 1008.2 988.4
06 19.02 Ю 7 н/о н/о +32.6 -2.9 10 +29 +29 жарко 1008.1 988.3
07 19.02 Ю 9 н/о н/о +32.6 -5.9 8 +29 +29 жарко 1008.4 988.6
08 19.02 Ю 8 н/о н/о +31.8 -8.2 7 +28 +28 жарко 1008.7 988.9
09 19.02 Ю 8 н/о н/о +30.5 -9.1 7 +26 +26 жарко 1009.4 989.6
10 19.02 Ю 7 н/о н/о +28.9 -8.6 8 +25 +25 комфорт 1010.3 990.4
11 19.02 Ю 6 н/о н/о +27.6 -8.1 9 +24 +24 комфорт 1011.0 991.1
12 19.02 Ю 6 н/о н/о +26.4 -9.0 9 +23 +23 комфорт 1011.5 991.6
13 19.02 Ю 5 н/о н/о +25.2 -7.3 11 +23 +23 комфорт 1011.7 991.8 +34.5
14 19.02 Ю 6 н/о н/о +24.3 -4.9 14 +22 +22 комфорт 1011.7 991.8
15 19.02 Ю 6 н/о н/о +23.1 -3.3 17 +21 +21 комфорт 1011.5 991.6
16 19.02 Ю 6 н/о н/о +22.3 -2.4 19 +21 +21 комфорт 1011.3 991.4
17 19.02 Ю 6 н/о н/о +21.7 -1.6 21 +21 +21 комфорт 1011.2 991.3
18 19.02 Ю 5 н/о н/о +20.8 -1.1 23 +21 +21 комфорт 1011.2 991.3
19 19.02 Ю 5 н/о н/о +20.4 -0.8 24 +20 +20 1011.7 991.8
20 19.02 Ю 5 н/о н/о +19.7 -0.3 26 +20 +20 1012.4 992.5
21 19.02 Ю 6 н/о н/о +20.3 +0.2 26 +20 +20 1012.9 993.0
22 19.02 ЮВ 7 н/о н/о +22.4 +0.3 23 +22 +22 комфорт 1013.7 993.8
23 19.02 ЮВ 7 н/о н/о +23.7 +0.1 21 +23 +23 комфорт 1014.4 994.5
00 20.02 ЮВ 7 н/о н/о +25.8 +0.5 19 +24 +24 комфорт 1014.7 994.7
01 20.02 Ю 7 н/о н/о +27.2 +0.1 17 +25 +25 комфорт 1014.8 994.8 +19.5
02 20.02 Ю 7 н/о н/о +28.1 -2.9 13 +25 +25 комфорт 1013.9 994.0
03 20.02 Ю 7 н/о н/о +29.4 -2.9 12 +26 +26 жарко 1012.8 992.9
04 20.02 Ю 8 н/о н/о +30.3 -4.7 10 +27 +27 жарко 1012.1 992.2
05 20.02 Ю 8 н/о н/о +31.7 -5.0 9 +28 +28 жарко 1011.4 991.5
06 20.02 Ю 8 н/о н/о +30.7 -5.8 9 +27 +27 жарко 1011.1 991.2
07 20.02 Ю 8 н/о н/о +30.5 -5.9 9 +27 +27 жарко 1011.1 991.2
08 20.02 Ю 9 н/о н/о +29.8 -5.1 10 +26 +26 жарко 1011.3 991.4
09 20.02 Ю 7 н/о н/о +28.8 -4.6 11 +26 +26 жарко 1011.5 991.6
10 20.02 Ю 5 н/о н/о +27.5 -4.4 12 +25 +25 комфорт 1012.1 992.2
11 20.02 Ю 5 н/о н/о +26.6 -4.0 13 +24 +24 комфорт 1012.5 992.6
12 20.02 Ю 6 н/о н/о +25.7 -3.8 14 +23 +23 комфорт 1012.9 993.0
13 20.02 Ю 6 н/о н/о +24.8 -3.6 15 +23 +23 комфорт 1013.1 993.2 +31.9
14 20.02 Ю 6 н/о н/о +24.1 -3.3 16 +22 +22 комфорт 1013.3 993.4
15 20.02 Ю 6 н/о н/о +23.3 -1.6 19 +22 +22 комфорт 1013.2 993.3
16 20.02 Ю 7 н/о н/о +22.9 -1.2 20 +22 +22 комфорт 1012.9 993.0
17 20.02 Ю 6 н/о н/о +22.2 -0.5 22 +21 +21 комфорт 1012.9 993.0
18 20.02 Ю 6 н/о н/о +21.4 -0.6 23 +21 +21 комфорт 1013.1 993.2
19 20.02 Ю 6 н/о н/о +20.7 0.0 25 +21 +21 комфорт 1013.5 993.6
20 20.02 Ю 6 н/о н/о +20.3 +0.2 26 +20 +20 1013.9 994.0
21 20.02 Ю 4 н/о н/о +21.0 +0.2 25 +21 +21 комфорт 1014.8 994.8
22 20.02 Ю 7 н/о н/о +22.9 +0.1 22 +22 +22 комфорт 1015.4 995.4
23 20.02 Ю 8 н/о н/о +23.8 +0.8 22 +23 +23 комфорт 1015.9 995.9
00 21.02 ЮВ 9 н/о н/о +25.8 +1.8 21 +24 +24 комфорт 1015.9 995.9
01 21.02 ЮВ 9 н/о н/о +27.0 +2.1 20 +25 +25 комфорт 1015.9 995.9 +20.2
02 21.02 ЮВ 8 н/о н/о +28.6 +2.0 18 +26 +26 жарко 1015.2 995.2
03 21.02 Ю 8 н/о н/о +30.0 -0.4 14 +27 +27 жарко 1014.2 994.3
04 21.02 Ю 8 н/о н/о +30.5 -3.3 11 +27 +27 жарко 1013.2 993.3
05 21.02 Ю 9 н/о н/о +32.0 -2.1 11 +28 +28 жарко 1012.2 992.3
06 21.02 Ю 9 н/о н/о +32.3 -1.9 11 +29 +29 жарко 1011.4 991.5
07 21.02 Ю 9 н/о н/о +32.3 -1.9 11 +29 +29 жарко 1011.2 991.3
08 21.02 Ю 9 н/о н/о +31.5 -2.5 11 +28 +28 жарко 1011.6 991.7
09 21.02 Ю 9 н/о н/о +30.3 -3.4 11 +27 +27 жарко 1012.0 992.1
10 21.02 Ю 8 н/о н/о +29.3 -1.9 13 +26 +26 жарко 1012.6 992.7
11 21.02 Ю 7 н/о н/о +28.2 -0.9 15 +26 +26 жарко 1013.3 993.4
12 21.02 Ю 7 н/о н/о +27.3 +0.1 17 +25 +25 комфорт 1013.9 994.0
13 21.02 Ю 7 н/о н/о +26.6 +0.4 18 +25 +25 комфорт 1013.8 993.9 +33.0
14 21.02 Ю 7 н/о н/о +26.1 0.0 18 +24 +24 комфорт 1013.4 993.5
15 21.02 Ю 7 н/о н/о +25.2 +0.7 20 +24 +24 комфорт 1013.3 993.4
16 21.02 Ю 7 н/о н/о +24.4 +0.7 21 +23 +23 комфорт 1013.1 993.2
17 21.02 Ю 7 н/о н/о +23.6 +0.7 22 +23 +23 комфорт 1013.0 993.1
18 21.02 Ю 6 н/о н/о +22.7 +0.5 23 +22 +22 комфорт 1012.9 993.0
19 21.02 Ю 6 н/о н/о +22.3 +0.8 24 +22 +22 комфорт 1013.2 993.3
20 21.02 Ю 6 н/о н/о +22.0 +0.5 24 +21 +21 комфорт 1013.5 993.6
21 21.02 Ю 6 н/о н/о +22.5 +0.9 24 +22 +22 комфорт 1014.0 994.1
22 21.02 Ю 6 н/о н/о +24.4 +0.7 21 +23 +23 комфорт 1014.4 994.5
23 21.02 ЮВ 8 н/о н/о +26.8 +1.3 19 +25 +25 комфорт 1014.6 994.6
00 22.02 ЮВ 8 н/о н/о +29.0 +4.5 21 +27 +27 жарко 1014.6 994.6
01 22.02 ЮВ 8 н/о н/о +31.8 +6.1 20 +30 +30 жарко 1014.6 994.6 +21.7
02 22.02 ЮВ 8 н/о н/о +34.1 +5.6 17 +32 +32 жарко 1014.0 994.1
03 22.02 ЮВ 7 н/о н/о +34.8 +1.2 12 +31 +31 жарко 1013.5 993.6
04 22.02 ЮВ 8 н/о н/о +35.3 +1.6 12 +32 +32 жарко 1012.9 993.0
05 22.02 Ю 7 н/о н/о +36.1 -0.3 10 +32 +32 жарко 1012.2 992.3
06 22.02 ЮВ 8 н/о н/о +35.5 +0.6 11 +32 +32 жарко 1011.6 991.7
07 22.02 ЮВ 9 н/о н/о +35.7 -0.6 10 +32 +32 жарко 1011.5 991.6
08 22.02 ЮВ 9 н/о н/о +34.8 -1.3 10 +31 +31 жарко 1011.7 991.8
09 22.02 ЮВ 9 н/о н/о +33.5 +1.3 13 +30 +30 жарко 1012.1 992.2
10 22.02 Ю 8 н/о н/о +32.3 +0.4 13 +29 +29 жарко 1012.9 993.0
11 22.02 Ю 7 н/о н/о +31.3 -1.5 12 +28 +28 жарко 1013.6 993.7
12 22.02 Ю 7 н/о н/о +30.3 -2.2 12 +27 +27 жарко 1014.2 994.3
13 22.02 Ю 7 н/о н/о +29.5 -2.9 12 +26 +26 жарко 1014.2 994.3 +37.0
14 22.02 Ю 7 н/о н/о +28.5 -3.6 12 +25 +25 комфорт 1014.0 994.1
15 22.02 Ю 6 н/о н/о +27.6 -3.3 13 +25 +25 комфорт 1013.8 993.9
16 22.02 Ю 6 н/о н/о +26.9 -2.8 14 +24 +24 комфорт 1013.4 993.5
17 22.02 Ю 6 н/о н/о +26.4 -1.4 16 +24 +24 комфорт 1013.1 993.2
18 22.02 ЮВ 5 н/о н/о +25.5 +0.2 19 +24 +24 комфорт 1013.2 993.3
19 22.02 ЮВ 4 н/о н/о +24.9 +1.1 21 +24 +24 комфорт 1013.7 993.8
20 22.02 ЮВ 4 н/о н/о +24.5 +2.6 24 +24 +24 комфорт 1014.3 994.4
21 22.02 В 6 н/о н/о +25.2 +3.8 25 +24 +24 комфорт 1015.5 995.5
22 22.02 В 7 н/о н/о +27.6 +5.2 24 +27 +27 жарко 1016.2 996.2
23 22.02 В 9 н/о н/о +29.5 +4.9 21 +28 +28 жарко 1016.4 996.4
00 23.02 В 8 н/о н/о +31.4 +4.2 18 +29 +29 жарко 1016.8 996.8
01 23.02 В 9 н/о н/о +32.8 +1.8 14 +30 +30 жарко 1016.7 996.7 +24.3
02 23.02 В 9 н/о н/о +33.7 +0.4 12 +30 +30 жарко 1016.1 996.1
03 23.02 В 9 н/о н/о +33.9 +0.5 12 +31 +31 жарко 1015.6 995.6
04 23.02 В 9 н/о н/о +34.9 -1.2 10 +31 +31 жарко 1014.9 994.9
05 23.02 В 9 н/о н/о +34.7 -1.4 10 +31 +31 жарко 1014.1 994.2
06 23.02 ЮВ 9 н/о н/о +35.1 -2.5 9 +31 +31 жарко 1013.7 993.8
07 23.02 В 9 н/о н/о +34.9 -1.2 10 +31 +31 жарко 1013.4 993.5
08 23.02 ЮВ 9 н/о н/о +34.2 -1.7 10 +30 +30 жарко 1013.6 993.7
09 23.02 В 8 н/о н/о +32.8 +0.8 13 +30 +30 жарко 1014.1 994.2
10 23.02 ЮВ 7 н/о н/о +31.6 +0.9 14 +29 +29 жарко 1015.0 995.0
11 23.02 ЮВ 6 н/о н/о +30.5 +1.0 15 +28 +28 жарко 1015.7 995.7
12 23.02 ЮВ 5 н/о н/о +29.3 +1.7 17 +27 +27 жарко 1015.9 995.9
13 23.02 ЮВ 5 н/о н/о +28.1 +1.6 18 +26 +26 жарко 1015.9 995.9 +36.4
14 23.02 ЮВ 4 н/о н/о +26.1 +1.4 20 +25 +25 комфорт 1015.7 995.7
15 23.02 ЮВ 5 н/о н/о +26.2 +1.5 20 +25 +25 комфорт 1015.5 995.5
16 23.02 В 5 н/о н/о +24.6 +1.5 22 +23 +23 комфорт 1015.3 995.3
17 23.02 В 4 н/о н/о +22.8 +1.2 24 +22 +22 комфорт 1015.2 995.2
18 23.02 В 4 н/о н/о +22.1 +1.2 25 +22 +22 комфорт 1015.5 995.5
19 23.02 В 4 н/о н/о +21.3 +1.0 26 +21 +21 комфорт 1016.3 996.3
20 23.02 В 3 н/о н/о +20.9 +1.7 28 +21 +21 комфорт 1017.2 997.2
21 23.02 В 4 н/о н/о +22.1 +2.8 28 +22 +22 комфорт 1018.0 998.0
22 23.02 В 9 н/о н/о +26.4 +6.4 28 +26 +26 жарко 1018.6 998.6
23 23.02 В 10 н/о н/о +27.9 +6.1 25 +27 +27 жарко 1018.9 998.9
00 24.02 В 11 н/о н/о +29.7 +6.4 23 +28 +28 жарко 1018.9 998.9
01 24.02 В 9 н/о н/о +31.4 +5.0 19 +29 +29 жарко 1018.7 998.7 +20.7
02 24.02 В 8 н/о н/о +32.2 +4.1 17 +30 +30 жарко 1018.0 998.0
03 24.02 В 7 н/о н/о +33.1 +2.1 14 +30 +30 жарко 1017.1 997.1
04 24.02 В 6 н/о н/о +33.2 +1.1 13 +30 +30 жарко 1016.6 996.6
05 24.02 В 6 н/о н/о +34.6 +2.2 13 +31 +31 жарко 1015.7 995.7

 

Местоположение метеостанции Тибообера (Новый Южный Уэльс, Австралия): широта -29.45 долгота 142.05 высота над уровнем моря 177 м.

В архиве по умолчанию представлена погода в Тибообере за последнюю неделю. Архивные данные за месяц целиком и за предыдущие месяцы, начиная с января 2011 года, Вы можете получить, выбрав интересующий диапазон дат из раскрывающегося списка и нажав кнопку "Ввод!".


*Определитесь, кто Вы:
робот инопланетянин человек

Внимание! Время в таблицах - всемирное. Для получения местного времени необходимо прибавить поправку, которая равна 10 ч.

Смотрите также архив погоды в соседних городах и на ближайших метеорологических станциях:

Погода в Уафт Клифс (Новый Южный Уэльс, Австралия) (184 км)
Погода в Фоулерс Гэп (Новый Южный Уэльс, Австралия) (184 км)
Погода в Месторождении Ballera (Квинсленд, Австралия) (227 км)
Погода в Мумбе (Южная Австралия, Австралия) (235 км)
Погода в Таргоминде (Квинсленд, Австралия) (237 км)
Погода в Уилкании (Новый Южный Уэльс, Австралия) (263 км)
Погода в Брокен-Хилле (Новый Южный Уэльс, Австралия) (289 км)
Погода в Ли-Крике (Южная Австралия, Австралия) (372 км)
Погода в Бурке (Новый Южный Уэльс, Австралия) (382 км)
Погода в Марри (Южная Австралия, Австралия) (387 км)

Пояснения к столбцам:

Ветер - указаны скорость ветра в м/с - средняя за 10 мин, порывы в срок и между сроками (в фигурных скобках) и направление, откуда дует ветер: С - северный, СВ - северо-восточный, В - восточный, ЮВ - юго-восточный, Ю - южный, ЮЗ - юго-западный, З - западный, СЗ - северо-западный.
Видимость - горизонтальная дальность видимости в метрах или километрах. При видимости от 1 до 10 км при отсутствии осадков обычно наблюдается дымка, при ухудшении видимости до 1 км и менее - туман. В сухую погоду видимость может ухудшаться дымом, пылью или мглою.
Явления - указаны атмосферные явления, наблюдавшиеся в срок или в последний час перед сроком; фигурными скобками обозначены явления, наблюдавшиеся между сроками (за 1-3 часа до срока); квадратными скобками обозначены град или гололедные отложения с указанием их диаметра в мм.
Облачность - указаны через наклонную черту общая и нижняя облачность в баллах и высота нижней границы облаков в метрах; квадратными скобками обозначены формы облаков: Ci - перистые, Cs - перисто-слоистые, Cc - перисто-кучевые, Ac - высококучевые, As - высокослоистые, Sc - слоисто-кучевые, Ns - слоисто-дождевые, Cu - кучевые, Cb - кучево-дождевые. Подробнее классификацию облаков см. в Атласе облаков (PDF).
T - Температура воздуха - температура, измеренная на высоте 2 м над землей.
Td - Температура точки росы - температура, при понижении до которой содержащийся в воздухе водяной пар достигнет насыщения.
f - Относительная влажность воздуха - влажноcть воздуха, измеренная на высоте 2 м над землей.
Te - Эффективная температура - температура, которую ощущает одетый по сезону человек в тени. Характеристика душности погоды. При расчете учитывается влияние влажности воздуха и скорости ветра на теплоощущения человека.
Tes - Эффективная температура на солнце - температура, которую ощущает человек, с поправкой на солнечный нагрев. Характеристика знойности погоды. Зависит от высоты солнца над горизонтом, облачности и скорости ветра. Ночью, в пасмурную погоду, а также при ветре 12 м/с и более поправка равна нулю.
P - Атмосферное давление - приведенное к уровню моря атмосферное давление.
Po - Атмосферное давление - измеренное на уровне метеостанции атмосферное давление.
Tmin - Минимальная температура - минимум температуры воздуха на высоте 2 м над землей.
Tmax - Максимальная температура - максимум температуры воздуха на высоте 2 м над землей.
R - Количество осадков - Количество выпавших осадков за период времени, мм. При наведении курсора мыши на число - период времени, за который выпало указанное количество осадков.
R24 - Количество осадков - Количество выпавших осадков за 24 часа, мм.
S - Снежный покров - Высота снежного покрова, см. При наведении курсора мыши на число - состояние снежного покрова и степень покрытия местности в баллах.